Main page


Airports :

Abu Musa, Iran

latitude: 25-52-33N, longitude: 055-02-01E, elevation: 7 m

Current weather observation

The report was made 59 minutes ago, at 09:00 UTC
Wind 12 kt from the Northwest
Temperature 26°C
Humidity 54%
Pressure 1009 hPa
Visibility: 5000 m

METAR: OIBA 180900Z 31012KT 5000 HZ NSC 26/16 Q1009

Time: 13:29 (09:59 UTC)

TAF: missing

Weather observations and forecasts of more than 4000 airports (METAR and TAF reports).

The available stations are represented by yellow and red dots on the map.

Hover mouse over dot to see the name of the station.

Then click to see weather observations and forecasts.

To change the map : click on the green buttons with a black cross to zoom in, on the green button with a dash to zoom out, or on the green arrows for adjacent maps.